Stations météo

réclame
Mon MeteoGroup
Hemling, Suède (2265): Température de l'air & dewpoint: 15.08.2018 06:00:00 - 21.08.2018 06:00:00 (CEST)Hemling, Suède (2265): Vitesse du vent & gusts: 15.08.2018 06:00:00 - 21.08.2018 06:00:00 (CEST)Hemling, Suède (2265): Direction du vent: 15.08.2018 06:00:00 - 21.08.2018 06:00:00 (CEST)Hemling, Suède (2265): reduced air pressure: 15.08.2018 06:00:00 - 21.08.2018 06:00:00 (CEST)Hemling, Suède (2265): visibility: 15.08.2018 06:00:00 - 21.08.2018 06:00:00 (CEST)Hemling, Suède (2265): Quantités de précipitations: 15.08.2018 06:00:00 - 21.08.2018 06:00:00 (CEST)
Date & Time tt [°C] td [°C] ff [km/h] ff [knt] fx [km/h] fx [knt] dd ppp [hPa] vv [km] rr [mm]
21.08.2018 06:00:00 - - - - - - - - - -
21.08.2018 05:00:00 5,8 4,0 10 5 19 10 WNW 1010,1 50 0,0
21.08.2018 04:00:00 6,1 4,6 13 7 18 10 W 1010,0 50 0,0
21.08.2018 03:00:00 6,3 4,6 8 4 17 9 WNW 1009,8 50 0,0
21.08.2018 02:00:00 6,9 5,4 11 6 18 10 WNW 1009,3 50 0,0
21.08.2018 01:00:00 5,3 4,1 4 2 9 5 WNW 1009,0 50 0,0
21.08.2018 00:00:00 4,6 3,9 3 1 5 3 NW 1008,6 50 0,0
20.08.2018 23:00:00 6,9 5,5 2 1 12 7 NE 1007,8 50 0,0
20.08.2018 22:00:00 9,2 5,9 7 4 13 7 WNW 1007,3 50 0,0
20.08.2018 21:00:00 10,2 5,6 6 3 12 6 WNW 1006,7 50 0,0
20.08.2018 20:00:00 12,4 5,8 5 3 18 10 NW 1006,3 50 0,0
20.08.2018 19:00:00 14,0 5,9 9 5 28 15 NNW 1006,2 42 0,0
20.08.2018 18:00:00 14,1 6,2 9 5 31 17 N 1006,1 36 0,0
20.08.2018 17:00:00 16,0 4,1 14 8 26 14 WNW 1005,8 44 0,0
20.08.2018 16:00:00 16,2 5,2 15 8 30 16 W 1006,0 48 0,0
20.08.2018 15:00:00 15,5 5,7 16 8 38 20 WNW 1006,3 49 0,0
20.08.2018 14:00:00 16,0 6,1 14 7 28 15 NNW 1006,2 45 0,0
20.08.2018 13:00:00 16,2 7,1 16 9 31 17 W 1006,3 49 0,0
20.08.2018 12:00:00 15,1 6,4 14 8 27 15 W 1006,6 48 0,0
20.08.2018 11:00:00 14,1 6,2 14 8 26 14 W 1006,8 39 0,0
20.08.2018 10:00:00 13,2 6,1 13 7 27 14 WNW 1006,8 39 0,0
20.08.2018 09:00:00 11,7 6,6 11 6 32 17 W 1007,0 41 0,0
20.08.2018 08:00:00 10,4 6,7 9 5 17 9 WNW 1007,1 46 0,0
20.08.2018 07:00:00 8,4 5,9 4 2 15 8 N 1007,7 42 0,0
20.08.2018 06:00:00 7,7 5,5 5 3 13 7 NNW 1007,7 45 0,0
20.08.2018 05:00:00 6,8 5,1 3 2 16 8 NNE 1007,8 47 0,0
20.08.2018 04:00:00 7,5 5,0 5 3 13 7 NW 1008,0 46 0,0
20.08.2018 03:00:00 7,0 4,5 9 5 26 14 WSW 1008,1 50 0,0
20.08.2018 02:00:00 8,1 5,0 10 5 18 10 W 1008,3 50 0,0
20.08.2018 01:00:00 6,7 4,5 8 4 15 8 W 1008,5 50 0,0
20.08.2018 00:00:00 7,9 4,8 4 2 16 8 WNW 1008,3 50 0,0
19.08.2018 23:00:00 10,2 5,0 10 5 21 11 WNW 1007,9 50 0,0
19.08.2018 22:00:00 10,8 5,3 9 5 26 14 W 1007,7 50 0,0
19.08.2018 21:00:00 11,5 5,6 7 4 27 15 SW 1007,7 50 0,0
19.08.2018 20:00:00 13,2 5,4 14 8 34 19 W 1007,2 50 0,0
19.08.2018 19:00:00 14,4 4,9 16 9 40 22 W 1007,0 50 0,0
19.08.2018 18:00:00 15,9 5,2 22 12 47 25 W 1006,2 46 0,0
19.08.2018 17:00:00 16,3 5,9 22 12 47 26 W 1006,0 36 0,0
19.08.2018 16:00:00 15,8 6,8 17 9 49 26 WNW 1005,9 47 0,0
19.08.2018 15:00:00 16,0 5,9 22 12 45 24 W 1005,6 44 0,0
19.08.2018 14:00:00 15,4 5,6 19 10 40 21 W 1005,3 48 0,0
19.08.2018 13:00:00 14,9 6,5 19 10 48 26 W 1004,9 44 0,0
19.08.2018 12:00:00 15,6 6,3 28 15 45 25 W 1004,2 37 0,0
19.08.2018 11:00:00 15,1 6,6 24 13 43 23 W 1003,8 41 0,0
19.08.2018 10:00:00 15,0 7,3 23 12 40 22 W 1003,5 44 0,0
19.08.2018 09:00:00 13,8 7,3 20 11 36 19 W 1003,2 47 0,0
19.08.2018 08:00:00 13,1 8,2 17 9 41 22 W 1002,6 44 0,0
19.08.2018 07:00:00 12,5 8,0 15 8 31 17 WSW 1002,4 50 0,0
19.08.2018 06:00:00 10,5 8,3 8 5 15 8 SW 1002,1 50 0,0
19.08.2018 05:00:00 5,8 5,7 2 1 12 6 N 1002,0 50 0,0
19.08.2018 04:00:00 7,1 7,0 4 2 11 6 S 1001,4 50 0,0
19.08.2018 03:00:00 7,4 7,1 0 0 11 6 N 1000,8 1,6 0,0
19.08.2018 02:00:00 11,8 8,5 10 5 49 26 WNW 1000,1 50 0,0
19.08.2018 01:00:00 13,2 11,6 12 7 23 12 SW 998,7 50 0,0
19.08.2018 00:00:00 12,8 12,0 11 6 28 15 S 998,5 48 0,0
18.08.2018 23:00:00 12,8 12,0 17 9 33 18 S 998,9 45 0,0
18.08.2018 22:00:00 12,6 12,0 18 10 35 19 S 999,4 14 1,7
18.08.2018 21:00:00 12,6 12,1 13 7 24 13 SSE 1000,5 6 2,9
18.08.2018 20:00:00 12,9 12,3 9 5 18 10 SSE 1001,7 11 2,0
18.08.2018 19:00:00 13,7 12,4 9 5 23 12 S 1002,7 12 1,0
18.08.2018 18:00:00 15,4 11,2 15 8 32 17 SSW 1003,2 20 0,2
18.08.2018 17:00:00 16,2 9,8 13 7 33 18 S 1003,5 45 0,0
18.08.2018 16:00:00 16,6 10,0 14 7 37 20 S 1004,1 50 0,0
18.08.2018 15:00:00 17,1 10,2 16 8 44 24 S 1004,4 42 0,0
18.08.2018 14:00:00 18,0 8,3 16 8 36 19 S 1004,8 43 0,0
18.08.2018 13:00:00 18,4 8,4 18 10 37 20 SSE 1005,0 39 0,0
18.08.2018 12:00:00 18,8 5,6 18 10 37 20 SSW 1005,7 48 0,0
18.08.2018 11:00:00 17,6 8,5 16 8 29 16 S 1006,3 39 0,0
18.08.2018 10:00:00 16,2 9,1 16 8 24 13 S 1007,0 50 0,0
18.08.2018 09:00:00 15,2 9,1 8 5 15 8 SSW 1007,5 43 0,0
18.08.2018 08:00:00 13,3 9,7 4 2 7 4 ESE 1008,1 46 0,0
18.08.2018 07:00:00 10,4 8,7 0 0 4 2 N 1008,7 45 0,0
18.08.2018 06:00:00 6,2 6,2 0 0 6 4 N 1009,1 30 0,0
18.08.2018 05:00:00 5,1 4,8 3 2 9 5 WSW 1009,0 18 0,0
18.08.2018 04:00:00 6,5 6,4 0 0 6 3 N 1008,9 41 0,0
18.08.2018 03:00:00 7,1 6,7 2 1 8 4 SW 1008,7 35 0,0
18.08.2018 02:00:00 8,1 7,8 3 2 8 4 S 1008,5 41 0,0
18.08.2018 01:00:00 10,3 9,7 4 2 7 4 NNE 1007,9 50 0,0
18.08.2018 00:00:00 13,1 10,1 4 2 16 8 SSW 1007,3 50 0,0
17.08.2018 23:00:00 14,1 10,3 10 5 19 10 SSW 1006,8 50 0,0
17.08.2018 22:00:00 16,0 11,0 10 5 16 9 SSW 1006,6 50 0,0
17.08.2018 21:00:00 16,8 11,3 9 5 20 11 S 1006,5 50 0,0
17.08.2018 20:00:00 17,8 11,6 9 5 29 16 S 1006,3 49 0,0
17.08.2018 19:00:00 18,5 11,6 12 7 29 16 S 1006,2 50 0,0
17.08.2018 18:00:00 19,0 12,3 13 7 33 18 S 1006,1 50 0,0
17.08.2018 17:00:00 21,3 12,7 16 9 33 18 S 1005,8 38 0,0
17.08.2018 16:00:00 20,8 12,7 16 9 40 21 S 1005,9 47 0,0
17.08.2018 15:00:00 21,2 11,2 18 10 40 21 SSW 1006,2 50 0,0
17.08.2018 14:00:00 21,6 10,4 24 13 42 23 SSW 1006,3 44 0,0
17.08.2018 13:00:00 21,5 12,6 22 12 45 25 SW 1006,2 40 0,0
17.08.2018 12:00:00 21,1 12,8 23 12 41 22 SSW 1005,9 40 0,0
17.08.2018 11:00:00 20,8 14,2 20 11 34 18 S 1005,9 35 0,0
17.08.2018 10:00:00 19,7 14,5 14 8 31 17 S 1006,1 41 0,0
17.08.2018 09:00:00 18,4 14,7 14 8 31 17 S 1006,3 31 0,0
17.08.2018 08:00:00 18,5 14,8 18 10 39 21 S 1006,3 28 0,0
17.08.2018 07:00:00 17,0 14,6 18 10 31 17 S 1006,5 22 0,0
17.08.2018 06:00:00 16,2 14,6 10 6 25 14 S 1006,9 18 0,0
17.08.2018 05:00:00 16,1 14,3 11 6 27 15 S 1007,3 28 0,0
17.08.2018 04:00:00 16,6 14,4 12 6 23 13 S 1007,4 31 0,0
17.08.2018 03:00:00 16,4 14,4 9 5 19 10 S 1007,4 34 0,0
17.08.2018 02:00:00 16,5 14,7 10 5 21 11 SSE 1007,9 35 0,0
17.08.2018 01:00:00 16,2 14,7 9 5 17 9 SE 1008,2 29 0,0
17.08.2018 00:00:00 16,1 14,5 12 6 19 10 SSE 1008,8 32 0,0
16.08.2018 23:00:00 15,8 14,3 9 5 24 13 SSE 1009,0 39 0,0
16.08.2018 22:00:00 16,3 14,5 11 6 23 13 S 1009,2 46 0,0
16.08.2018 21:00:00 16,5 15,0 11 6 22 12 S 1009,3 37 0,0
16.08.2018 20:00:00 16,6 15,0 9 5 19 10 SSE 1009,4 44 0,1
16.08.2018 19:00:00 17,3 14,8 10 5 25 14 SSE 1009,8 16 0,0
16.08.2018 18:00:00 17,8 14,3 12 7 34 19 SSE 1009,9 47 0,0
16.08.2018 17:00:00 17,9 14,0 15 8 30 16 S 1010,2 45 0,0
16.08.2018 16:00:00 17,2 14,1 14 8 29 16 SE 1010,2 46 0,0
16.08.2018 15:00:00 17,9 13,6 16 9 36 19 SE 1010,2 41 0,0
16.08.2018 14:00:00 17,9 13,2 21 11 34 19 SSE 1010,3 45 0,0
16.08.2018 13:00:00 18,4 13,0 19 10 40 22 SSE 1010,1 45 0,0
16.08.2018 12:00:00 17,9 13,2 23 12 38 20 SSE 1010,6 33 0,0
16.08.2018 11:00:00 17,0 12,9 19 10 33 18 SSE 1011,1 36 0,0
16.08.2018 10:00:00 17,7 12,8 18 10 30 16 S 1011,0 40 0,0
16.08.2018 09:00:00 16,7 13,2 11 6 25 13 SSE 1011,0 48 0,0
16.08.2018 08:00:00 15,5 13,2 9 5 19 10 SSE 1011,4 42 0,0
16.08.2018 07:00:00 13,7 13,1 10 6 14 7 SE 1011,7 27 0,0
16.08.2018 06:00:00 11,0 10,8 3 2 6 3 SE 1011,9 20 0,0
16.08.2018 05:00:00 11,0 11,0 3 2 5 3 NNE 1011,9 28 0,0
16.08.2018 04:00:00 9,0 9,0 0 0 5 3 N 1012,5 37 0,0
16.08.2018 03:00:00 6,3 6,3 0 0 4 2 N 1012,9 25 0,0
16.08.2018 02:00:00 5,6 5,6 2 1 5 3 SE 1012,9 23 0,0
16.08.2018 01:00:00 6,0 5,9 4 2 5 3 SE 1013,3 37 0,0
16.08.2018 00:00:00 6,4 6,3 4 2 7 4 SE 1013,2 35 0,0
15.08.2018 23:00:00 7,4 7,0 5 3 6 3 SE 1012,9 48 0,0
15.08.2018 22:00:00 8,7 8,1 4 2 8 5 SE 1012,8 50 0,0
15.08.2018 21:00:00 11,3 7,8 3 2 15 8 S 1012,4 50 0,0
15.08.2018 20:00:00 13,8 7,3 9 5 19 10 SE 1011,9 50 0,0
15.08.2018 19:00:00 15,6 8,3 10 5 21 11 S 1011,5 48 0,0
15.08.2018 18:00:00 16,9 8,6 11 6 22 12 S 1011,2 47 0,0
15.08.2018 17:00:00 17,5 8,6 11 6 19 11 SE 1010,9 44 0,0
15.08.2018 16:00:00 17,6 9,0 10 5 16 8 S 1011,1 43 0,0
15.08.2018 15:00:00 17,2 8,6 6 3 18 10 S 1011,2 39 0,0
15.08.2018 14:00:00 16,7 7,6 9 5 22 12 S 1011,2 46 0,0
15.08.2018 13:00:00 16,3 8,3 10 6 17 9 S 1011,0 44 0,0
15.08.2018 12:00:00 15,3 7,1 7 4 18 10 SSE 1011,1 47 0,0
15.08.2018 11:00:00 14,4 8,3 7 4 14 8 ESE 1011,4 50 0,0
15.08.2018 10:00:00 12,1 9,3 0 0 4 2 N 1011,5 43 0,0
15.08.2018 09:00:00 9,1 8,0 0 0 6 3 N 1011,6 39 0,0
15.08.2018 08:00:00 7,2 6,5 0 0 8 5 N 1011,7 32 0,0
15.08.2018 07:00:00 6,6 6,2 2 1 6 3 N 1011,6 45 0,0
15.08.2018 06:00:00 5,0 4,9 3 2 6 3 N 1011,6 40 0,0

tt = Température de l'air
td = dewpoint
ff = Vitesse du vent
fx = gusts
dd = Direction du vent
ppp = reduced air pressure
vv = visibility
rr = Quantités de précipitations

stations d'obs. à proximité